Location: Key Biscayne
(25.6930°N, 80.1630°W)
Time: 17:20:29
(UTC-04:00)

CZ-2D R/B - Visible Passes

Search period start: 02 September 2014 00:00
Search period end: 12 September 2014 00:00
Orbit: 537 x 554 km, 97.6° (Epoch: 01 September)

Date Brightness Start Highest point End Pass type
(mag) Time Alt. Az. Time Alt. Az. Time Alt. Az.
02 Sep 4.8 20:09:18 10° ESE 20:12:05 19° ENE 20:14:53 10° NNE visible
02 Sep 5.8 21:44:17 13° SW 21:46:31 19° W 21:49:24 10° NW visible
03 Sep 5.0 20:04:01 10° ESE 20:06:26 16° ENE 20:08:52 10° NE visible
03 Sep 5.5 21:38:40 15° SW 21:40:49 23° W 21:43:59 10° NW visible
04 Sep 5.2 19:58:52 10° E 20:00:48 13° ENE 20:02:44 10° NE visible
04 Sep 5.2 21:33:03 18° SW 21:35:06 27° W 21:38:30 10° NW visible
05 Sep 4.9 21:27:26 21° SSW 21:29:23 33° W 21:32:59 10° NNW visible
06 Sep 4.6 21:21:49 24° SSW 21:23:41 40° W 21:27:25 10° NNW visible
07 Sep 4.2 21:16:12 28° SSW 21:17:59 48° W 21:21:49 10° NNW visible
08 Sep 3.8 21:10:36 31° SSW 21:12:16 59° W 21:16:11 10° NNW visible
09 Sep 3.4 21:04:59 35° S 21:06:34 73° W 21:10:31 10° NNW visible
10 Sep 3.2 20:59:22 37° S 21:00:51 88° WSW 21:04:50 10° NNW visible
11 Sep 3.2 20:53:45 39° SSE 20:55:09 76° ENE 20:59:06 10° N visible
